Location: Consuma
(43.7833°N, 11.5833°E)
Time: 11:11:53
(UTC+00:00)

STARLINK-1087 - Pass Details

Date: 17 February 2020
Orbit: 379 x 380 km, 53.0° (Epoch: 09 April)

Event Time Altitude Azimuth Distance (km) Brightness Sun altitude
Exits shadow 05:14:29 11° 237° (WSW) 1,273 5.0 -10.8°
Maximum altitude 05:17:19 84° 324° (NW) 371 2.7 -10.2°
Drops below altitude 10° 05:20:20 10° 54° (NE) 1,356 6.4 -9.7°
Sets 05:22:23 0° 55° (NE) 2,208 7.5 -9.3°
